Location: Unspecified
(33.6682°S, 0.0000°E)
Time: 13:59:57
(UTC+00:00)

S-56A Canister/Altair - Pass Details

Date: 02 July 2019
Orbit: 632 x 2500 km, 38.9° (Epoch: 15 July)

Event Time Altitude Azimuth Distance (km) Brightness Sun altitude
Exits shadow 05:34:59 25° 249° (WSW) 2,651 9.6 -18.3°
Maximum altitude 05:41:21 87° 336° (NNW) 1,815 9.3 -17.0°
Drops below altitude 10° 05:54:53 10° 64° (ENE) 4,907 13.0 -14.3°
Sets 05:59:06 0° 64° (ENE) 6,054 14.0 -13.5°
